Change the Weather History Date:

Saturday, October 6, 2012

  Actual Average Record
Temperature  
Mean Temperature 35 °F -  
Max Temperature 42 °F 62 °F 93 °F (2007)
Min Temperature 28 °F 39 °F 21 °F (2001)
Degree Days  
Heating Degree Days 30    
Moisture  
Dew Point 24 °F    
Average Humidity 62    
Maximum Humidity 80    
Minimum Humidity 39    
Precipitation  
Precipitation 0.00 in - - ()
Sea Level Pressure  
Sea Level Pressure 30.26 in    
Wind  
Wind Speed 13 mph (NW)    
Max Wind Speed 23 mph    
Max Gust Speed 30 mph    
Visibility 10 miles    
Events      
Averages and records for this station are not official NWS values.
T = Trace of Precipitation, MM = Missing Value Source: NWS Daily Summary

Daily Weather History Graph

Daily Weather History Graph

Search for Another Location

Airport or City:

Trip Planner

Search our weather history database for the weather conditions in past years. The results will help you decide how hot, cold, wet, or windy it might be!

Date:

Astronomy

Oct. 06, 2012 Rise Set
Actual Time 7:23 AM CDT 6:51 PM CDT
Civil Twilight 6:55 AM CDT 7:19 PM CDT
Nautical Twilight 6:22 AM CDT 7:52 PM CDT
Astronomical Twilight 5:48 AM CDT 8:26 PM CDT
Moon 10:59 PM CDT (10/6) 1:27 PM CDT (10/6)
Length of Visible Light 12h 24m
Length of Day
11h 27m
Waning Gibbous, 65% of the Moon is Illuminated
Oct 6
Waning Gibbous
Oct 8
Last Quarter
Oct 15
New
Oct 21
First Quarter
Oct 29
Full

Hourly Weather History & Observations

Time (CDT) Temp. Windchill Dew Point Humidity Pressure Visibility Wind Dir Wind Speed Gust Speed Precip Events Conditions
12:14 AM 33.8 °F 26.4 °F 23.0 °F 65% 30.22 in 10.0 mi NW 9.2 mph - N/A   Mostly Cloudy
12:33 AM 35.6 °F 26.6 °F 23.0 °F 60% 30.22 in 10.0 mi NW 13.8 mph 18.4 mph N/A   Mostly Cloudy
12:53 AM 35.6 °F 26.6 °F 23.0 °F 60% 30.22 in 10.0 mi NW 13.8 mph 20.7 mph N/A   Overcast
1:13 AM 37.4 °F 27.5 °F 21.2 °F 52% 30.22 in 10.0 mi NW 18.4 mph 23.0 mph N/A   Overcast
1:54 AM 37.4 °F 26.6 °F 23.0 °F 56% 30.22 in 10.0 mi NNW 21.9 mph 29.9 mph N/A   Overcast
2:13 AM 35.6 °F 24.8 °F 24.8 °F 65% 30.22 in 10.0 mi NNW 19.6 mph 27.6 mph N/A   Mostly Cloudy
2:33 AM 35.6 °F 24.0 °F 26.6 °F 70% 30.23 in 10.0 mi NNW 23.0 mph 27.6 mph N/A   Scattered Clouds
2:54 AM 33.8 °F 23.5 °F 26.6 °F 75% 30.23 in 10.0 mi NNW 16.1 mph 19.6 mph N/A   Clear
3:13 AM 32.0 °F 21.6 °F 26.6 °F 80% 30.23 in 10.0 mi NW 15.0 mph 18.4 mph N/A   Clear
3:33 AM 32.0 °F 23.0 °F 26.6 °F 80% 30.22 in 10.0 mi NW 11.5 mph - N/A   Mostly Cloudy
3:54 AM 33.8 °F 24.8 °F 26.6 °F 75% 30.22 in 10.0 mi NW 12.7 mph 18.4 mph N/A   Overcast
4:33 AM 33.8 °F 25.3 °F 26.6 °F 75% 30.22 in 10.0 mi NW 11.5 mph 18.4 mph N/A   Overcast
4:54 AM 33.8 °F 23.9 °F 26.6 °F 75% 30.22 in 10.0 mi NW 15.0 mph 20.7 mph N/A   Overcast
5:14 AM 33.8 °F 22.8 °F 26.6 °F 75% 30.22 in 10.0 mi NW 18.4 mph 24.2 mph N/A   Overcast
5:33 AM 33.8 °F 21.9 °F 26.6 °F 75% 30.23 in 10.0 mi NW 21.9 mph 29.9 mph N/A   Overcast
5:54 AM 33.8 °F 22.2 °F 26.6 °F 75% 30.23 in 10.0 mi NW 20.7 mph 26.5 mph N/A   Overcast
6:14 AM 33.8 °F 22.5 °F 26.6 °F 75% 30.25 in 10.0 mi NNW 19.6 mph 27.6 mph N/A   Overcast
6:33 AM 33.8 °F 23.2 °F 26.6 °F 75% 30.25 in 10.0 mi NNW 17.3 mph 24.2 mph N/A   Overcast
6:54 AM 33.8 °F 23.5 °F 26.6 °F 75% 30.26 in 10.0 mi NNW 16.1 mph - N/A   Overcast
7:13 AM 33.8 °F 23.5 °F 26.6 °F 75% 30.26 in 10.0 mi NW 16.1 mph 19.6 mph N/A   Overcast
7:33 AM 33.8 °F 24.3 °F 26.6 °F 75% 30.27 in 10.0 mi NW 13.8 mph - N/A   Overcast
7:54 AM 33.8 °F 23.9 °F 26.6 °F 75% 30.28 in 10.0 mi NW 15.0 mph - N/A   Overcast
8:13 AM 33.8 °F 24.8 °F 26.6 °F 75% 30.28 in 10.0 mi NW 12.7 mph - N/A   Overcast
8:33 AM 33.8 °F 23.5 °F 26.6 °F 75% 30.28 in 10.0 mi NW 16.1 mph - N/A   Overcast
8:54 AM 33.8 °F 23.5 °F 26.6 °F 75% 30.29 in 10.0 mi NW 16.1 mph 23.0 mph N/A   Overcast
9:13 AM 35.6 °F 26.2 °F 26.6 °F 70% 30.30 in 10.0 mi NW 15.0 mph 23.0 mph N/A   Overcast
9:33 AM 35.6 °F 25.9 °F 26.6 °F 70% 30.30 in 10.0 mi NW 16.1 mph 21.9 mph N/A   Overcast
9:53 AM 35.6 °F 25.2 °F 26.6 °F 70% 30.30 in 10.0 mi NW 18.4 mph - N/A   Overcast
10:13 AM 35.6 °F 26.2 °F 28.4 °F 75% 30.30 in 10.0 mi NNW 15.0 mph - N/A   Overcast
10:33 AM 37.4 °F 27.8 °F 28.4 °F 70% 30.30 in 10.0 mi NW 17.3 mph - N/A   Overcast
10:53 AM 37.4 °F 28.9 °F 26.6 °F 65% 30.30 in 10.0 mi NNW 13.8 mph 23.0 mph N/A   Overcast
11:14 AM 37.4 °F 28.9 °F 26.6 °F 65% 30.30 in 10.0 mi NW 13.8 mph 18.4 mph N/A   Overcast
11:33 AM 37.4 °F 30.8 °F 26.6 °F 65% 30.30 in 10.0 mi North 9.2 mph 17.3 mph N/A   Overcast
11:53 AM 37.4 °F 31.4 °F 26.6 °F 65% 30.30 in 10.0 mi North 8.1 mph 20.7 mph N/A   Overcast
12:14 PM 37.4 °F 29.3 °F 26.6 °F 65% 30.31 in 10.0 mi NNW 12.7 mph 19.6 mph N/A   Overcast
12:33 PM 37.4 °F 28.5 °F 26.6 °F 65% 30.31 in 10.0 mi NNW 15.0 mph 18.4 mph N/A   Overcast
12:54 PM 37.4 °F 28.5 °F 26.6 °F 65% 30.30 in 10.0 mi NNW 15.0 mph 18.4 mph N/A   Overcast
1:13 PM 37.4 °F 29.3 °F 26.6 °F 65% 30.30 in 10.0 mi NNW 12.7 mph 24.2 mph N/A   Overcast
1:33 PM 37.4 °F 31.4 °F 24.8 °F 60% 30.30 in 10.0 mi North 8.1 mph 23.0 mph N/A   Overcast
1:54 PM 39.2 °F 31.2 °F 23.0 °F 52% 30.29 in 10.0 mi NW 13.8 mph 20.7 mph N/A   Overcast
2:13 PM 39.2 °F 30.2 °F 23.0 °F 52% 30.27 in 10.0 mi NW 17.3 mph 23.0 mph N/A   Overcast
2:33 PM 41.0 °F 34.3 °F 23.0 °F 49% - 10.0 mi NNW 11.5 mph 23.0 mph N/A   Overcast
2:54 PM 41.0 °F 33.1 °F 21.2 °F 45% 30.27 in 10.0 mi NW 15.0 mph 21.9 mph N/A   Overcast
3:13 PM 41.0 °F 34.3 °F 21.2 °F 45% 30.26 in 10.0 mi NNW 11.5 mph 19.6 mph N/A   Overcast
3:33 PM 41.0 °F 33.5 °F 21.2 °F 45% 30.26 in 10.0 mi NW 13.8 mph 18.4 mph N/A   Mostly Cloudy
3:54 PM 41.0 °F 36.4 °F 19.4 °F 42% 30.26 in 10.0 mi North 6.9 mph - N/A   Scattered Clouds
4:13 PM 42.8 °F 36.6 °F 19.4 °F 39% 30.25 in 10.0 mi NW 11.5 mph 21.9 mph N/A   Scattered Clouds
4:33 PM 42.8 °F 37.5 °F 21.2 °F 42% 30.25 in 10.0 mi North 9.2 mph 19.6 mph N/A   Mostly Cloudy
4:54 PM 42.8 °F 37.0 °F 19.4 °F 39% 30.26 in 10.0 mi NNW 10.4 mph - N/A   Mostly Cloudy
5:13 PM 42.8 °F 38.0 °F 19.4 °F 39% 30.25 in 10.0 mi North 8.1 mph 17.3 mph N/A   Overcast
5:34 PM 41.0 °F 35.8 °F 19.4 °F 42% 30.25 in 10.0 mi NNW 8.1 mph - N/A   Mostly Cloudy
5:53 PM 41.0 °F 37.1 °F 19.4 °F 42% 30.25 in 10.0 mi North 5.8 mph - N/A   Overcast
6:13 PM 41.0 °F 35.2 °F 19.4 °F 42% 30.26 in 10.0 mi North 9.2 mph - N/A   Overcast
6:34 PM 41.0 °F 35.2 °F 19.4 °F 42% 30.26 in 10.0 mi NNW 9.2 mph - N/A   Mostly Cloudy
6:53 PM 39.2 °F 33.0 °F 19.4 °F 45% 30.27 in 10.0 mi NNW 9.2 mph - N/A   Mostly Cloudy
7:13 PM 39.2 °F 33.0 °F 21.2 °F 49% 30.27 in 10.0 mi NNW 9.2 mph - N/A   Overcast
7:34 PM 37.4 °F 30.8 °F 21.2 °F 52% 30.27 in 10.0 mi NNW 9.2 mph - N/A   Mostly Cloudy
7:53 PM 37.4 °F 31.4 °F 21.2 °F 52% 30.27 in 10.0 mi NNW 8.1 mph - N/A   Scattered Clouds
8:13 PM 35.6 °F 29.9 °F 21.2 °F 56% 30.27 in 10.0 mi NW 6.9 mph - N/A   Clear
8:33 PM 33.8 °F 28.6 °F 21.2 °F 60% 30.28 in 10.0 mi NW 5.8 mph - N/A   Clear
8:53 PM 32.0 °F 28.7 °F 21.2 °F 64% 30.28 in 10.0 mi WNW 3.5 mph - N/A   Clear
9:13 PM 32.0 °F - 21.2 °F 64% 30.27 in 10.0 mi Calm Calm - N/A   Clear
9:33 PM 32.0 °F 28.7 °F 21.2 °F 64% 30.27 in 10.0 mi WNW 3.5 mph - N/A   Clear
9:53 PM 32.0 °F 28.7 °F 21.2 °F 64% 30.27 in 10.0 mi West 3.5 mph - N/A   Clear
10:13 PM 32.0 °F 27.5 °F 21.2 °F 64% 30.27 in 10.0 mi West 4.6 mph - N/A   Clear
10:33 PM 32.0 °F 27.5 °F 21.2 °F 64% 30.27 in 10.0 mi West 4.6 mph - N/A   Clear
10:53 PM 32.0 °F 27.5 °F 21.2 °F 64% 30.27 in 10.0 mi West 4.6 mph - N/A   Clear
11:13 PM 28.4 °F 22.2 °F 21.2 °F 74% 30.27 in 10.0 mi West 5.8 mph - N/A   Clear
11:33 PM 28.4 °F 23.3 °F 19.4 °F 69% 30.27 in 10.0 mi West 4.6 mph - N/A   Clear
11:53 PM 30.2 °F 25.4 °F 21.2 °F 69% 30.26 in 10.0 mi West 4.6 mph - N/A   Clear